Time,TemperatureF,DewpointF,PressureIn,WindDirection,WindDirectionDegrees,WindSpeedMPH,WindSpeedGustMPH,Humidity,HourlyPrecipIn,Conditions,Clouds,dailyrainin,SoftwareType,DateUTC
2013-08-16 00:01:00,63.8,60.8,30.00,South,171,0.0,0.0,90,0.00,,---,0.00,VWS V14.01,2013-08-16 07:01:00,
2013-08-16 00:06:00,63.7,60.7,30.00,South,171,0.0,0.0,90,0.00,,---,0.00,VWS V14.01,2013-08-16 07:06:00,
2013-08-16 00:11:00,63.6,60.9,30.00,South,171,0.0,0.0,91,0.00,,---,0.00,VWS V14.01,2013-08-16 07:11:00,
2013-08-16 00:16:00,63.6,60.9,30.00,South,171,0.0,0.0,91,0.00,,---,0.00,VWS V14.01,2013-08-16 07:16:00,
2013-08-16 00:21:00,63.6,60.9,30.00,South,171,0.0,0.0,91,0.00,,---,0.00,VWS V14.01,2013-08-16 07:21:00,
2013-08-16 00:26:00,63.4,60.7,30.00,South,171,0.0,0.0,91,0.00,,---,0.00,VWS V14.01,2013-08-16 07:26:00,
2013-08-16 00:31:00,63.2,60.2,30.00,South,171,0.0,0.0,90,0.00,,---,0.00,VWS V14.01,2013-08-16 07:31:00,
2013-08-16 00:36:00,63.0,60.0,30.00,South,171,0.0,0.0,90,0.00,,---,0.00,VWS V14.01,2013-08-16 07:36:00,
2013-08-16 00:41:00,62.8,59.8,30.00,South,171,0.0,0.0,90,0.00,,---,0.00,VWS V14.01,2013-08-16 07:41:00,
2013-08-16 00:46:00,62.6,59.9,30.00,South,171,0.0,0.0,91,0.00,,---,0.00,VWS V14.01,2013-08-16 07:46:00,
2013-08-16 00:51:00,62.7,60.3,30.00,South,171,0.0,0.0,92,0.00,,---,0.00,VWS V14.01,2013-08-16 07:51:00,
2013-08-16 00:56:00,62.7,60.3,29.99,South,171,0.0,0.0,92,0.00,,---,0.00,VWS V14.01,2013-08-16 07:56:00,
2013-08-16 01:01:00,62.7,60.3,29.99,South,171,0.0,0.0,92,0.00,,---,0.00,VWS V14.01,2013-08-16 08:01:00,
2013-08-16 01:06:00,62.6,60.2,29.99,South,171,0.0,0.0,92,0.00,,---,0.00,VWS V14.01,2013-08-16 08:06:00,
2013-08-16 01:11:00,62.6,60.5,29.99,South,171,0.0,0.0,93,0.00,,---,0.00,VWS V14.01,2013-08-16 08:11:00,
2013-08-16 01:16:00,62.6,60.2,29.99,South,171,0.0,0.0,92,0.00,,---,0.00,VWS V14.01,2013-08-16 08:16:00,
2013-08-16 01:21:00,62.5,60.2,29.99,South,171,0.0,0.0,92,0.00,,---,0.00,VWS V14.01,2013-08-16 08:21:00,
2013-08-16 01:26:00,62.5,60.2,29.99,South,171,0.0,0.0,92,0.00,,---,0.00,VWS V14.01,2013-08-16 08:26:00,
2013-08-16 01:31:00,62.5,60.5,29.99,South,171,0.0,0.0,93,0.00,,---,0.00,VWS V14.01,2013-08-16 08:31:00,
2013-08-16 01:36:00,62.6,60.5,29.99,South,171,0.0,0.0,93,0.00,,---,0.00,VWS V14.01,2013-08-16 08:36:00,
2013-08-16 01:41:00,62.7,60.7,29.99,South,171,0.0,0.0,93,0.00,,---,0.00,VWS V14.01,2013-08-16 08:41:00,
2013-08-16 01:46:00,62.6,60.5,29.99,South,171,0.0,0.0,93,0.00,,---,0.00,VWS V14.01,2013-08-16 08:46:00,
2013-08-16 01:51:00,62.7,60.7,29.99,South,171,0.0,0.0,93,0.00,,---,0.00,VWS V14.01,2013-08-16 08:51:00,
2013-08-16 01:56:00,62.7,60.3,29.99,South,171,0.0,0.0,92,0.00,,---,0.00,VWS V14.01,2013-08-16 08:56:00,
2013-08-16 02:01:00,62.5,60.2,29.99,South,171,0.0,0.0,92,0.00,,---,0.00,VWS V14.01,2013-08-16 09:01:00,
2013-08-16 02:06:00,62.3,60.0,29.99,South,171,0.0,0.0,92,0.00,,---,0.00,VWS V14.01,2013-08-16 09:06:00,
2013-08-16 02:11:00,62.2,59.8,29.99,South,171,0.0,0.0,92,0.00,,---,0.00,VWS V14.01,2013-08-16 09:11:00,
2013-08-16 02:16:00,62.0,59.7,29.98,South,171,0.0,0.0,92,0.00,,---,0.00,VWS V14.01,2013-08-16 09:16:00,
2013-08-16 02:21:00,62.3,60.2,29.98,South,171,0.0,0.0,93,0.00,,---,0.00,VWS V14.01,2013-08-16 09:21:00,
2013-08-16 02:26:00,62.4,60.3,29.98,South,171,0.0,0.0,93,0.00,,---,0.00,VWS V14.01,2013-08-16 09:26:00,
2013-08-16 02:31:00,62.4,60.3,29.98,South,171,0.0,0.0,93,0.00,,---,0.00,VWS V14.01,2013-08-16 09:31:00,
2013-08-16 02:36:00,62.0,59.7,29.98,South,171,0.0,0.0,92,0.00,,---,0.00,VWS V14.01,2013-08-16 09:36:00,
2013-08-16 02:41:00,61.8,59.8,29.98,South,171,0.0,0.0,93,0.00,,---,0.00,VWS V14.01,2013-08-16 09:41:00,
2013-08-16 02:46:00,62.0,60.3,29.98,South,171,0.0,0.0,94,0.00,,---,0.00,VWS V14.01,2013-08-16 09:46:00,
2013-08-16 02:51:00,62.2,60.5,29.98,South,171,0.0,0.0,94,0.00,,---,0.00,VWS V14.01,2013-08-16 09:51:00,
2013-08-16 02:56:00,62.1,60.1,29.98,South,171,0.0,0.0,93,0.00,,---,0.00,VWS V14.01,2013-08-16 09:56:00,
2013-08-16 03:01:00,61.8,59.8,29.98,South,171,0.0,0.0,93,0.00,,---,0.00,VWS V14.01,2013-08-16 10:01:00,
2013-08-16 03:06:00,61.9,60.2,29.98,South,171,0.0,0.0,94,0.00,,---,0.00,VWS V14.01,2013-08-16 10:06:00,
2013-08-16 03:11:00,62.2,60.5,29.98,South,171,0.0,0.0,94,0.00,,---,0.00,VWS V14.01,2013-08-16 10:11:00,
2013-08-16 03:16:00,62.3,60.6,29.98,South,171,0.0,0.0,94,0.00,,---,0.00,VWS V14.01,2013-08-16 10:16:00,
2013-08-16 03:21:00,62.2,60.2,29.98,South,171,0.0,0.0,93,0.00,,---,0.00,VWS V14.01,2013-08-16 10:21:00,
2013-08-16 03:26:00,61.8,59.8,29.98,South,171,0.0,0.0,93,0.00,,---,0.00,VWS V14.01,2013-08-16 10:26:00,
2013-08-16 03:31:00,61.8,59.8,29.98,South,171,0.0,0.0,93,0.00,,---,0.00,VWS V14.01,2013-08-16 10:31:00,
2013-08-16 03:36:00,62.0,60.3,29.98,South,171,0.0,0.0,94,0.00,,---,0.00,VWS V14.01,2013-08-16 10:36:00,
2013-08-16 03:41:00,62.2,60.5,29.98,South,171,0.0,0.0,94,0.00,,---,0.00,VWS V14.01,2013-08-16 10:41:00,
2013-08-16 03:46:00,62.1,60.4,29.98,South,171,0.0,0.0,94,0.00,,---,0.00,VWS V14.01,2013-08-16 10:46:00,
2013-08-16 03:51:00,61.8,59.8,29.98,South,171,0.0,0.0,93,0.00,,---,0.00,VWS V14.01,2013-08-16 10:51:00,
2013-08-16 03:56:00,61.6,59.6,29.98,South,171,0.0,0.0,93,0.00,,---,0.00,VWS V14.01,2013-08-16 10:56:00,
2013-08-16 04:01:00,61.6,59.9,29.98,South,171,0.0,0.0,94,0.00,,---,0.00,VWS V14.01,2013-08-16 11:01:00,
2013-08-16 04:06:00,61.5,59.8,29.98,South,171,0.0,0.0,94,0.00,,---,0.00,VWS V14.01,2013-08-16 11:06:00,
2013-08-16 04:11:00,61.5,59.8,29.97,South,171,0.0,0.0,94,0.00,,---,0.00,VWS V14.01,2013-08-16 11:11:00,
2013-08-16 04:16:00,61.6,59.9,29.97,South,171,0.0,0.0,94,0.00,,---,0.00,VWS V14.01,2013-08-16 11:16:00,
2013-08-16 04:21:00,61.8,60.1,29.97,South,171,0.0,0.0,94,0.00,,---,0.00,VWS V14.01,2013-08-16 11:21:00,
2013-08-16 04:26:00,61.9,60.2,29.97,South,171,0.0,0.0,94,0.00,,---,0.00,VWS V14.01,2013-08-16 11:26:00,
2013-08-16 04:31:00,61.8,60.1,29.97,South,171,0.0,0.0,94,0.00,,---,0.00,VWS V14.01,2013-08-16 11:31:00,
2013-08-16 04:36:00,61.6,59.9,29.97,South,171,0.0,0.0,94,0.00,,---,0.00,VWS V14.01,2013-08-16 11:36:00,
2013-08-16 04:41:00,61.5,59.8,29.97,South,171,0.0,0.0,94,0.00,,---,0.00,VWS V14.01,2013-08-16 11:41:00,
2013-08-16 04:46:00,61.3,59.6,29.97,South,171,0.0,0.0,94,0.00,,---,0.00,VWS V14.01,2013-08-16 11:46:00,
2013-08-16 04:51:00,61.1,59.4,29.97,South,171,0.0,0.0,94,0.00,,---,0.00,VWS V14.01,2013-08-16 11:51:00,
2013-08-16 04:56:00,61.1,59.4,29.97,South,171,0.0,0.0,94,0.00,,---,0.00,VWS V14.01,2013-08-16 11:56:00,
2013-08-16 05:01:00,61.1,59.4,29.98,South,171,0.0,0.0,94,0.00,,---,0.00,VWS V14.01,2013-08-16 12:01:00,
2013-08-16 05:06:00,61.1,59.4,29.97,South,171,0.0,0.0,94,0.00,,---,0.00,VWS V14.01,2013-08-16 12:06:00,
2013-08-16 05:11:00,61.1,59.4,29.97,South,171,0.0,0.0,94,0.00,,---,0.00,VWS V14.01,2013-08-16 12:11:00,
2013-08-16 05:16:00,61.1,59.4,29.97,South,171,0.0,0.0,94,0.00,,---,0.00,VWS V14.01,2013-08-16 12:16:00,
2013-08-16 05:21:00,61.0,59.3,29.97,South,171,0.0,0.0,94,0.00,,---,0.00,VWS V14.01,2013-08-16 12:21:00,
2013-08-16 05:26:00,61.0,59.6,29.97,South,171,0.0,0.0,95,0.00,,---,0.00,VWS V14.01,2013-08-16 12:26:00,
2013-08-16 05:30:00,60.9,59.2,29.97,South,171,0.0,0.0,94,0.00,,---,0.00,VWS V14.01,2013-08-16 12:30:00,
2013-08-16 05:35:00,60.8,59.1,29.97,South,171,0.0,0.0,94,0.00,,---,0.00,VWS V14.01,2013-08-16 12:35:00,
2013-08-16 05:40:00,60.8,59.4,29.97,South,171,0.0,0.0,95,0.00,,---,0.00,VWS V14.01,2013-08-16 12:40:00,
2013-08-16 05:45:00,60.7,59.0,29.97,South,171,0.0,0.0,94,0.00,,---,0.00,VWS V14.01,2013-08-16 12:45:00,
2013-08-16 05:50:00,60.8,59.4,29.97,South,171,0.0,0.0,95,0.00,,---,0.00,VWS V14.01,2013-08-16 12:50:00,
2013-08-16 05:55:00,61.2,60.0,29.97,South,171,0.0,0.0,96,0.00,,---,0.00,VWS V14.01,2013-08-16 12:55:00,
2013-08-16 06:00:00,61.3,59.9,29.98,South,171,0.0,0.0,95,0.00,,---,0.00,VWS V14.01,2013-08-16 13:00:00,
2013-08-16 06:05:00,61.4,60.0,29.98,South,171,0.0,0.0,95,0.00,,---,0.00,VWS V14.01,2013-08-16 13:05:00,
2013-08-16 06:10:00,61.5,60.1,29.98,South,171,0.0,0.0,95,0.00,,---,0.00,VWS V14.01,2013-08-16 13:10:00,
2013-08-16 06:15:00,61.4,60.0,29.98,South,171,0.0,0.0,95,0.00,,---,0.00,VWS V14.01,2013-08-16 13:15:00,
2013-08-16 06:20:00,61.4,60.0,29.98,South,171,0.0,0.0,95,0.00,,---,0.00,VWS V14.01,2013-08-16 13:20:00,
2013-08-16 06:25:00,61.5,60.1,29.98,South,171,0.0,0.0,95,0.00,,---,0.00,VWS V14.01,2013-08-16 13:25:00,
2013-08-16 06:30:00,61.5,60.1,29.98,South,171,0.0,0.0,95,0.00,,---,0.00,VWS V14.01,2013-08-16 13:30:00,
2013-08-16 06:35:00,61.4,60.0,29.98,South,171,0.0,0.0,95,0.00,,---,0.00,VWS V14.01,2013-08-16 13:35:00,
2013-08-16 06:40:00,61.7,60.5,29.98,South,171,0.0,0.0,96,0.00,,---,0.00,VWS V14.01,2013-08-16 13:40:00,
2013-08-16 06:45:00,62.0,60.8,29.98,South,171,0.0,0.0,96,0.00,,---,0.00,VWS V14.01,2013-08-16 13:45:00,
2013-08-16 06:50:00,62.4,61.2,29.98,South,171,0.0,0.0,96,0.00,,---,0.00,VWS V14.01,2013-08-16 13:50:00,
2013-08-16 06:55:00,62.6,61.5,29.98,South,171,0.0,0.0,96,0.00,,---,0.00,VWS V14.01,2013-08-16 13:55:00,
2013-08-16 07:00:00,62.8,61.3,29.99,South,171,0.0,0.0,95,0.00,,---,0.00,VWS V14.01,2013-08-16 14:00:00,
2013-08-16 07:05:00,63.0,61.5,29.99,South,171,0.0,0.0,95,0.00,,---,0.00,VWS V14.01,2013-08-16 14:05:00,
2013-08-16 07:10:00,63.3,61.8,29.99,South,171,0.0,0.0,95,0.00,,---,0.00,VWS V14.01,2013-08-16 14:10:00,
2013-08-16 07:15:00,63.5,61.8,29.99,South,178,0.0,1.0,94,0.00,,---,0.00,VWS V14.01,2013-08-16 14:15:00,
2013-08-16 07:20:00,63.7,62.0,29.99,South,178,0.0,1.0,94,0.00,,---,0.00,VWS V14.01,2013-08-16 14:20:00,
2013-08-16 07:25:00,63.8,62.0,30.00,South,178,0.0,1.0,94,0.00,,---,0.00,VWS V14.01,2013-08-16 14:25:00,
2013-08-16 07:30:00,64.0,62.2,30.00,South,178,0.0,0.0,94,0.00,,---,0.00,VWS V14.01,2013-08-16 14:30:00,
2013-08-16 07:35:00,64.4,62.6,30.00,South,178,0.0,1.0,94,0.00,,---,0.00,VWS V14.01,2013-08-16 14:35:00,
2013-08-16 07:40:00,64.8,63.0,30.00,South,178,0.0,1.0,94,0.00,,---,0.00,VWS V14.01,2013-08-16 14:40:00,
2013-08-16 07:45:00,65.2,63.1,30.00,South,178,0.0,1.0,93,0.00,,---,0.00,VWS V14.01,2013-08-16 14:45:00,
2013-08-16 07:50:00,65.6,62.9,30.00,South,178,0.0,1.0,91,0.00,,---,0.00,VWS V14.01,2013-08-16 14:50:00,
2013-08-16 07:55:00,65.9,62.9,30.00,South,178,0.0,1.0,90,0.00,,---,0.00,VWS V14.01,2013-08-16 14:55:00,
2013-08-16 08:00:00,66.1,62.8,30.00,South,178,0.0,0.0,89,0.00,,---,0.00,VWS V14.01,2013-08-16 15:00:00,
2013-08-16 08:05:00,66.8,63.5,30.00,South,178,0.0,1.0,89,0.00,,---,0.00,VWS V14.01,2013-08-16 15:05:00,
2013-08-16 08:10:00,68.0,64.0,30.00,South,178,0.0,1.0,87,0.00,,---,0.00,VWS V14.01,2013-08-16 15:10:00,
2013-08-16 08:15:00,68.9,64.6,30.00,South,178,0.0,1.0,86,0.00,,---,0.00,VWS V14.01,2013-08-16 15:15:00,
2013-08-16 08:20:00,69.6,64.6,30.00,South,178,0.0,1.0,84,0.00,,---,0.00,VWS V14.01,2013-08-16 15:20:00,
2013-08-16 08:25:00,70.3,64.2,30.00,SSE,161,1.0,4.0,81,0.00,,---,0.00,VWS V14.01,2013-08-16 15:25:00,
2013-08-16 08:30:00,70.1,64.0,30.00,SSW,194,0.0,2.0,81,0.00,,---,0.00,VWS V14.01,2013-08-16 15:30:00,
2013-08-16 08:35:00,70.3,64.2,30.00,SSW,200,0.0,2.0,81,0.00,,---,0.00,VWS V14.01,2013-08-16 15:35:00,
2013-08-16 08:40:00,70.8,64.3,30.00,SE,146,1.0,2.0,80,0.00,,---,0.00,VWS V14.01,2013-08-16 15:40:00,
2013-08-16 08:45:00,71.1,64.6,30.00,WSW,239,0.0,2.0,80,0.00,,---,0.00,VWS V14.01,2013-08-16 15:45:00,
2013-08-16 08:50:00,71.5,64.3,30.00,South,173,0.0,2.0,78,0.00,,---,0.00,VWS V14.01,2013-08-16 15:50:00,
2013-08-16 08:55:00,71.9,64.7,30.00,SSW,198,0.0,2.0,78,0.00,,---,0.00,VWS V14.01,2013-08-16 15:55:00,
2013-08-16 09:00:00,72.1,64.9,30.00,SSW,203,1.0,1.0,78,0.00,,---,0.00,VWS V14.01,2013-08-16 16:00:00,
2013-08-16 09:05:00,72.7,65.1,30.00,SSW,192,0.0,2.0,77,0.00,,---,0.00,VWS V14.01,2013-08-16 16:05:00,
2013-08-16 09:10:00,73.0,65.0,30.00,South,184,0.0,2.0,76,0.00,,---,0.00,VWS V14.01,2013-08-16 16:10:00,
2013-08-16 09:15:00,73.0,64.6,30.00,SSE,153,4.0,6.0,75,0.00,,---,0.00,VWS V14.01,2013-08-16 16:15:00,
2013-08-16 09:20:00,73.1,64.7,30.00,South,183,0.0,6.0,75,0.00,,---,0.00,VWS V14.01,2013-08-16 16:20:00,
2013-08-16 09:25:00,73.3,64.9,30.00,SE,130,0.0,6.0,75,0.00,,---,0.00,VWS V14.01,2013-08-16 16:25:00,
2013-08-16 09:30:00,74.2,65.0,30.00,SSE,148,0.0,5.0,73,0.00,,---,0.00,VWS V14.01,2013-08-16 16:30:00,
2013-08-16 09:35:00,74.8,65.2,30.00,SSE,158,0.0,5.0,72,0.00,,---,0.00,VWS V14.01,2013-08-16 16:35:00,
2013-08-16 09:40:00,75.4,65.3,30.00,SSE,152,2.0,6.0,71,0.00,,---,0.00,VWS V14.01,2013-08-16 16:40:00,
2013-08-16 09:45:00,75.5,65.4,30.00,SE,132,0.0,6.0,71,0.00,,---,0.00,VWS V14.01,2013-08-16 16:45:00,
2013-08-16 09:50:00,75.8,64.9,30.00,SE,145,0.0,6.0,69,0.00,,---,0.00,VWS V14.01,2013-08-16 16:50:00,
2013-08-16 09:55:00,76.0,65.1,30.00,SE,142,4.0,6.0,69,0.00,,---,0.00,VWS V14.01,2013-08-16 16:55:00,
2013-08-16 10:00:00,76.7,65.8,30.01,South,179,0.0,2.0,69,0.00,,---,0.00,VWS V14.01,2013-08-16 17:00:00,
2013-08-16 10:05:00,77.1,65.3,30.01,SSE,167,0.0,6.0,67,0.00,,---,0.00,VWS V14.01,2013-08-16 17:05:00,
2013-08-16 10:10:00,76.9,65.5,30.01,SSW,207,0.0,7.0,68,0.00,,---,0.00,VWS V14.01,2013-08-16 17:10:00,
2013-08-16 10:15:00,77.2,65.8,30.01,SSE,160,4.0,7.0,68,0.00,,---,0.00,VWS V14.01,2013-08-16 17:15:00,
2013-08-16 10:20:00,77.6,64.9,30.01,South,175,0.0,7.0,65,0.00,,---,0.00,VWS V14.01,2013-08-16 17:20:00,
2013-08-16 10:25:00,77.7,65.0,30.01,SSW,211,1.0,7.0,65,0.00,,---,0.00,VWS V14.01,2013-08-16 17:25:00,
2013-08-16 10:30:00,78.0,65.7,30.01,East,85,0.0,2.0,66,0.00,,---,0.00,VWS V14.01,2013-08-16 17:30:00,
2013-08-16 10:35:00,79.1,65.4,30.01,SSE,154,0.0,6.0,63,0.00,,---,0.00,VWS V14.01,2013-08-16 17:35:00,
2013-08-16 10:40:00,78.9,64.8,30.01,SSE,153,0.0,6.0,62,0.00,,---,0.00,VWS V14.01,2013-08-16 17:40:00,
2013-08-16 10:45:00,78.8,64.7,30.01,SE,140,0.0,6.0,62,0.00,,---,0.00,VWS V14.01,2013-08-16 17:45:00,
2013-08-16 10:50:00,79.2,65.1,30.01,South,173,0.0,6.0,62,0.00,,---,0.00,VWS V14.01,2013-08-16 17:50:00,
2013-08-16 10:55:00,80.3,65.6,30.01,SSE,161,0.0,6.0,61,0.00,,---,0.00,VWS V14.01,2013-08-16 17:55:00,
2013-08-16 11:00:00,80.7,65.1,30.00,ESE,121,0.0,5.0,59,0.00,,---,0.00,VWS V14.01,2013-08-16 18:00:00,
2013-08-16 11:05:00,80.9,65.7,30.00,ENE,76,0.0,5.0,60,0.00,,---,0.00,VWS V14.01,2013-08-16 18:05:00,
2013-08-16 11:10:00,82.0,65.8,30.00,ESE,107,0.0,5.0,58,0.00,,---,0.00,VWS V14.01,2013-08-16 18:10:00,
2013-08-16 11:15:00,82.9,65.6,30.00,SE,130,2.0,9.0,56,0.00,,---,0.00,VWS V14.01,2013-08-16 18:15:00,
2013-08-16 11:20:00,82.8,65.0,30.00,SE,134,0.0,9.0,55,0.00,,---,0.00,VWS V14.01,2013-08-16 18:20:00,
2013-08-16 11:25:00,82.3,65.1,30.00,SSE,161,0.0,9.0,56,0.00,,---,0.00,VWS V14.01,2013-08-16 18:25:00,
2013-08-16 11:30:00,81.9,64.7,30.00,South,178,4.0,6.0,56,0.00,,---,0.00,VWS V14.01,2013-08-16 18:30:00,
2013-08-16 11:35:00,81.9,64.7,30.00,SSE,152,0.0,6.0,56,0.00,,---,0.00,VWS V14.01,2013-08-16 18:35:00,
2013-08-16 11:40:00,82.7,64.9,30.00,ESE,121,4.0,6.0,55,0.00,,---,0.00,VWS V14.01,2013-08-16 18:40:00,
2013-08-16 11:45:00,83.6,65.2,30.00,SE,130,6.0,6.0,54,0.00,,---,0.00,VWS V14.01,2013-08-16 18:45:00,
2013-08-16 11:50:00,83.8,64.3,30.00,ESE,122,4.0,9.0,52,0.00,,---,0.00,VWS V14.01,2013-08-16 18:50:00,
2013-08-16 11:55:00,83.9,63.8,30.00,SSE,154,0.0,9.0,51,0.00,,---,0.00,VWS V14.01,2013-08-16 18:55:00,
2013-08-16 12:00:00,84.4,64.9,30.00,WSW,242,0.0,2.0,52,0.00,,---,0.00,VWS V14.01,2013-08-16 19:00:00,
2013-08-16 12:05:00,84.8,64.1,30.00,SSE,148,4.0,8.0,50,0.00,,---,0.00,VWS V14.01,2013-08-16 19:05:00,
2013-08-16 12:10:00,84.5,65.0,30.00,SE,137,0.0,8.0,52,0.00,,---,0.00,VWS V14.01,2013-08-16 19:10:00,
2013-08-16 12:15:00,85.2,64.5,30.00,SE,146,2.0,8.0,50,0.00,,---,0.00,VWS V14.01,2013-08-16 19:15:00,
2013-08-16 12:20:00,84.9,63.6,30.00,SSW,196,0.0,8.0,49,0.00,,---,0.00,VWS V14.01,2013-08-16 19:20:00,
2013-08-16 12:25:00,85.4,64.7,30.00,WSW,245,0.0,8.0,50,0.00,,---,0.00,VWS V14.01,2013-08-16 19:25:00,
2013-08-16 12:30:00,85.8,65.0,30.00,SSE,168,5.0,7.0,50,0.00,,---,0.00,VWS V14.01,2013-08-16 19:30:00,
2013-08-16 12:35:00,85.1,65.0,30.00,East,94,1.0,9.0,51,0.00,,---,0.00,VWS V14.01,2013-08-16 19:35:00,
2013-08-16 12:40:00,85.2,65.6,30.00,SE,132,2.0,9.0,52,0.00,,---,0.00,VWS V14.01,2013-08-16 19:40:00,
2013-08-16 12:45:00,85.2,65.1,30.00,SSE,168,0.0,9.0,51,0.00,,---,0.00,VWS V14.01,2013-08-16 19:45:00,
2013-08-16 12:50:00,85.5,65.3,29.99,ESE,105,0.0,9.0,51,0.00,,---,0.00,VWS V14.01,2013-08-16 19:50:00,
2013-08-16 12:55:00,85.5,64.2,30.00,SE,125,2.0,9.0,49,0.00,,---,0.00,VWS V14.01,2013-08-16 19:55:00,
2013-08-16 13:00:00,85.1,63.8,29.99,SE,126,0.0,6.0,49,0.00,,---,0.00,VWS V14.01,2013-08-16 20:00:00,
2013-08-16 13:05:00,85.3,64.0,29.99,SSW,192,2.0,7.0,49,0.00,,---,0.00,VWS V14.01,2013-08-16 20:05:00,
2013-08-16 13:10:00,85.7,63.8,29.99,West,277,0.0,7.0,48,0.00,,---,0.00,VWS V14.01,2013-08-16 20:10:00,
2013-08-16 13:15:00,85.7,63.8,29.99,WSW,237,3.0,11.0,48,0.00,,---,0.00,VWS V14.01,2013-08-16 20:15:00,
2013-08-16 13:20:00,85.7,64.4,29.99,SE,146,0.0,11.0,49,0.00,,---,0.00,VWS V14.01,2013-08-16 20:20:00,
2013-08-16 13:25:00,86.0,63.4,29.99,East,96,0.0,11.0,47,0.00,,---,0.00,VWS V14.01,2013-08-16 20:25:00,
2013-08-16 13:30:00,86.3,63.7,29.99,ESE,116,4.0,9.0,47,0.00,,---,0.00,VWS V14.01,2013-08-16 20:30:00,
2013-08-16 13:35:00,86.2,63.6,29.99,SSW,202,4.0,9.0,47,0.00,,---,0.00,VWS V14.01,2013-08-16 20:35:00,
2013-08-16 13:40:00,85.7,63.2,29.99,ENE,63,1.0,9.0,47,0.00,,---,0.00,VWS V14.01,2013-08-16 20:40:00,
2013-08-16 13:45:00,85.6,63.1,29.99,SE,134,0.0,9.0,47,0.00,,---,0.00,VWS V14.01,2013-08-16 20:45:00,
2013-08-16 13:50:00,85.4,63.5,29.99,NE,51,3.0,9.0,48,0.00,,---,0.00,VWS V14.01,2013-08-16 20:50:00,
2013-08-16 13:55:00,85.9,63.3,29.99,South,186,1.0,9.0,47,0.00,,---,0.00,VWS V14.01,2013-08-16 20:55:00,
2013-08-16 14:00:00,85.7,63.2,29.99,WSW,257,0.0,7.0,47,0.00,,---,0.00,VWS V14.01,2013-08-16 21:00:00,
2013-08-16 14:05:00,85.6,63.1,29.99,SSE,165,4.0,8.0,47,0.00,,---,0.00,VWS V14.01,2013-08-16 21:05:00,
2013-08-16 14:10:00,85.8,62.7,29.99,South,184,1.0,8.0,46,0.00,,---,0.00,VWS V14.01,2013-08-16 21:10:00,
2013-08-16 14:15:00,86.0,62.8,29.98,West,274,0.0,8.0,46,0.00,,---,0.00,VWS V14.01,2013-08-16 21:15:00,
2013-08-16 14:20:00,86.6,62.8,29.98,West,270,3.0,8.0,45,0.00,,---,0.00,VWS V14.01,2013-08-16 21:20:00,
2013-08-16 14:25:00,86.3,62.5,29.98,SSE,153,0.0,8.0,45,0.00,,---,0.00,VWS V14.01,2013-08-16 21:25:00,
2013-08-16 14:30:00,86.5,62.7,29.98,SE,132,1.0,4.0,45,0.00,,---,0.00,VWS V14.01,2013-08-16 21:30:00,
2013-08-16 14:35:00,87.2,62.0,29.98,NNW,348,0.0,7.0,43,0.00,,---,0.00,VWS V14.01,2013-08-16 21:35:00,
2013-08-16 14:40:00,87.4,62.2,29.98,SE,141,5.0,9.0,43,0.00,,---,0.00,VWS V14.01,2013-08-16 21:40:00,
2013-08-16 14:45:00,87.5,62.9,29.98,South,173,0.0,9.0,44,0.00,,---,0.00,VWS V14.01,2013-08-16 21:45:00,
2013-08-16 14:50:00,87.5,62.3,29.98,SSW,211,4.0,9.0,43,0.00,,---,0.00,VWS V14.01,2013-08-16 21:50:00,
2013-08-16 14:55:00,87.7,62.5,29.97,SSE,165,4.0,9.0,43,0.00,,---,0.00,VWS V14.01,2013-08-16 21:55:00,
2013-08-16 15:00:00,87.4,62.2,29.97,SSW,201,0.0,3.0,43,0.00,,---,0.00,VWS V14.01,2013-08-16 22:00:00,
2013-08-16 15:05:00,87.6,62.4,29.97,SE,130,0.0,7.0,43,0.00,,---,0.00,VWS V14.01,2013-08-16 22:05:00,
2013-08-16 15:10:00,88.0,62.7,29.97,SE,133,1.0,7.0,43,0.00,,---,0.00,VWS V14.01,2013-08-16 22:10:00,
2013-08-16 15:15:00,88.1,62.8,29.97,SW,215,1.0,8.0,43,0.00,,---,0.00,VWS V14.01,2013-08-16 22:15:00,
2013-08-16 15:20:00,88.1,63.5,29.97,South,178,0.0,11.0,44,0.00,,---,0.00,VWS V14.01,2013-08-16 22:20:00,
2013-08-16 15:25:00,88.0,64.0,29.97,ESE,121,1.0,11.0,45,0.00,,---,0.00,VWS V14.01,2013-08-16 22:25:00,
2013-08-16 15:30:00,88.2,64.2,29.97,SW,225,1.0,7.0,45,0.00,,---,0.00,VWS V14.01,2013-08-16 22:30:00,
2013-08-16 15:35:00,87.9,63.9,29.96,SW,226,1.0,9.0,45,0.00,,---,0.00,VWS V14.01,2013-08-16 22:35:00,
2013-08-16 15:40:00,87.9,63.9,29.96,SE,136,0.0,9.0,45,0.00,,---,0.00,VWS V14.01,2013-08-16 22:40:00,
2013-08-16 15:45:00,87.9,64.6,29.96,SSE,150,0.0,9.0,46,0.00,,---,0.00,VWS V14.01,2013-08-16 22:45:00,
2013-08-16 15:50:00,88.0,64.0,29.96,SSW,202,2.0,9.0,45,0.00,,---,0.00,VWS V14.01,2013-08-16 22:50:00,
2013-08-16 15:55:00,87.6,64.3,29.96,ESE,108,0.0,9.0,46,0.00,,---,0.00,VWS V14.01,2013-08-16 22:55:00,
2013-08-16 16:00:00,87.4,64.1,29.96,SSE,160,2.0,10.0,46,0.00,,---,0.00,VWS V14.01,2013-08-16 23:00:00,
2013-08-16 16:05:00,87.0,63.7,29.96,South,182,0.0,10.0,46,0.00,,---,0.00,VWS V14.01,2013-08-16 23:05:00,
2013-08-16 16:10:00,87.5,64.2,29.95,South,190,0.0,10.0,46,0.00,,---,0.00,VWS V14.01,2013-08-16 23:10:00,
2013-08-16 16:15:00,87.9,63.9,29.95,SSW,207,0.0,10.0,45,0.00,,---,0.00,VWS V14.01,2013-08-16 23:15:00,
2013-08-16 16:20:00,88.2,64.2,29.95,SSE,155,5.0,10.0,45,0.00,,---,0.00,VWS V14.01,2013-08-16 23:20:00,
2013-08-16 16:25:00,87.5,63.6,29.95,SW,235,3.0,10.0,45,0.00,,---,0.00,VWS V14.01,2013-08-16 23:25:00,
2013-08-16 16:30:00,87.7,63.8,29.95,SE,129,0.0,5.0,45,0.00,,---,0.00,VWS V14.01,2013-08-16 23:30:00,
2013-08-16 16:35:00,87.7,63.8,29.95,SE,146,1.0,9.0,45,0.00,,---,0.00,VWS V14.01,2013-08-16 23:35:00,
2013-08-16 16:40:00,87.3,63.4,29.95,SW,234,0.0,9.0,45,0.00,,---,0.00,VWS V14.01,2013-08-16 23:40:00,
2013-08-16 16:45:00,87.7,63.8,29.95,WNW,296,1.0,9.0,45,0.00,,---,0.00,VWS V14.01,2013-08-16 23:45:00,
2013-08-16 16:50:00,87.9,63.9,29.95,SSE,160,6.0,9.0,45,0.00,,---,0.00,VWS V14.01,2013-08-16 23:50:00,
2013-08-16 16:55:00,87.5,64.2,29.95,SSW,205,3.0,9.0,46,0.00,,---,0.00,VWS V14.01,2013-08-16 23:55:00,
2013-08-16 17:00:00,87.4,62.2,29.95,NW,314,0.0,1.0,43,0.00,,---,0.00,VWS V14.01,2013-08-17 00:00:00,
2013-08-16 17:05:00,87.8,61.9,29.94,West,277,0.0,7.0,42,0.00,,---,0.00,VWS V14.01,2013-08-17 00:05:00,
2013-08-16 17:10:00,87.9,61.3,29.94,NNE,28,2.0,7.0,41,0.00,,---,0.00,VWS V14.01,2013-08-17 00:10:00,
2013-08-16 17:15:00,87.9,61.3,29.94,SSW,192,3.0,7.0,41,0.00,,---,0.00,VWS V14.01,2013-08-17 00:15:00,
2013-08-16 17:20:00,87.5,60.9,29.95,South,184,0.0,7.0,41,0.00,,---,0.00,VWS V14.01,2013-08-17 00:20:00,
2013-08-16 17:25:00,87.1,59.9,29.94,SSW,200,0.0,7.0,40,0.00,,---,0.00,VWS V14.01,2013-08-17 00:25:00,
2013-08-16 17:30:00,87.0,59.1,29.94,SW,231,1.0,5.0,39,0.00,,---,0.00,VWS V14.01,2013-08-17 00:30:00,
2013-08-16 17:35:00,87.0,59.8,29.94,WSW,244,3.0,5.0,40,0.00,,---,0.00,VWS V14.01,2013-08-17 00:35:00,
2013-08-16 17:40:00,86.7,59.5,29.94,NW,306,0.0,6.0,40,0.00,,---,0.00,VWS V14.01,2013-08-17 00:40:00,
2013-08-16 17:45:00,86.4,59.9,29.94,West,260,5.0,6.0,41,0.00,,---,0.00,VWS V14.01,2013-08-17 00:45:00,
2013-08-16 17:50:00,86.2,58.4,29.94,WSW,246,0.0,6.0,39,0.00,,---,0.00,VWS V14.01,2013-08-17 00:50:00,
2013-08-16 17:55:00,85.9,57.4,29.94,SSW,201,1.0,6.0,38,0.00,,---,0.00,VWS V14.01,2013-08-17 00:55:00,
2013-08-16 18:00:00,85.3,58.3,29.95,West,269,0.0,1.0,40,0.00,,---,0.00,VWS V14.01,2013-08-17 01:00:00,
2013-08-16 18:05:00,84.3,57.4,29.95,West,261,0.0,6.0,40,0.00,,---,0.00,VWS V14.01,2013-08-17 01:05:00,
2013-08-16 18:10:00,83.6,57.4,29.95,WNW,290,1.0,6.0,41,0.00,,---,0.00,VWS V14.01,2013-08-17 01:10:00,
2013-08-16 18:15:00,82.9,56.8,29.95,WSW,238,0.0,6.0,41,0.00,,---,0.00,VWS V14.01,2013-08-17 01:15:00,
2013-08-16 18:20:00,82.4,55.7,29.95,WNW,289,0.0,6.0,40,0.00,,---,0.00,VWS V14.01,2013-08-17 01:20:00,
2013-08-16 18:25:00,81.9,53.8,29.95,WSW,251,0.0,6.0,38,0.00,,---,0.00,VWS V14.01,2013-08-17 01:25:00,
2013-08-16 18:30:00,81.7,54.4,29.95,SSW,194,0.0,1.0,39,0.00,,---,0.00,VWS V14.01,2013-08-17 01:30:00,
2013-08-16 18:35:00,81.5,55.5,29.95,WNW,291,0.0,3.0,41,0.00,,---,0.00,VWS V14.01,2013-08-17 01:35:00,
2013-08-16 18:40:00,81.1,54.5,29.95,NW,306,1.0,7.0,40,0.00,,---,0.00,VWS V14.01,2013-08-17 01:40:00,
2013-08-16 18:45:00,80.7,54.8,29.95,WSW,247,0.0,7.0,41,0.00,,---,0.00,VWS V14.01,2013-08-17 01:45:00,
2013-08-16 18:50:00,80.3,54.5,29.95,WSW,246,0.0,7.0,41,0.00,,---,0.00,VWS V14.01,2013-08-17 01:50:00,
2013-08-16 18:55:00,80.0,53.5,29.95,WNW,294,0.0,7.0,40,0.00,,---,0.00,VWS V14.01,2013-08-17 01:55:00,
2013-08-16 19:00:00,79.7,53.9,29.95,WNW,295,0.0,1.0,41,0.00,,---,0.00,VWS V14.01,2013-08-17 02:00:00,
2013-08-16 19:05:00,79.4,55.0,29.96,West,267,0.0,1.0,43,0.00,,---,0.00,VWS V14.01,2013-08-17 02:05:00,
2013-08-16 19:10:00,79.2,55.4,29.96,SSW,202,0.0,1.0,44,0.00,,---,0.00,VWS V14.01,2013-08-17 02:10:00,
2013-08-16 19:15:00,78.9,55.2,29.96,SSW,202,0.0,1.0,44,0.00,,---,0.00,VWS V14.01,2013-08-17 02:15:00,
2013-08-16 19:20:00,78.6,55.5,29.96,SSW,202,0.0,1.0,45,0.00,,---,0.00,VWS V14.01,2013-08-17 02:20:00,
2013-08-16 19:25:00,78.3,56.4,29.96,SSW,202,0.0,1.0,47,0.00,,---,0.00,VWS V14.01,2013-08-17 02:25:00,
2013-08-16 19:30:00,78.0,56.7,29.96,SSW,202,0.0,0.0,48,0.00,,---,0.00,VWS V14.01,2013-08-17 02:30:00,
2013-08-16 19:35:00,77.6,57.0,29.96,SSW,202,0.0,0.0,49,0.00,,---,0.00,VWS V14.01,2013-08-17 02:35:00,
2013-08-16 19:40:00,77.3,57.8,29.96,West,265,0.0,1.0,51,0.00,,---,0.00,VWS V14.01,2013-08-17 02:40:00,
2013-08-16 19:45:00,76.9,58.0,29.96,West,265,0.0,1.0,52,0.00,,---,0.00,VWS V14.01,2013-08-17 02:45:00,
2013-08-16 19:49:00,76.5,58.1,29.96,South,173,0.0,1.0,53,0.00,,---,0.00,VWS V14.01,2013-08-17 02:49:00,
2013-08-16 19:54:00,76.0,58.7,29.97,SW,221,0.0,1.0,55,0.00,,---,0.00,VWS V14.01,2013-08-17 02:54:00,
2013-08-16 19:59:00,75.7,58.4,29.97,SW,221,0.0,0.0,55,0.00,,---,0.00,VWS V14.01,2013-08-17 02:59:00,
2013-08-16 20:04:00,75.3,58.5,29.97,SW,221,0.0,1.0,56,0.00,,---,0.00,VWS V14.01,2013-08-17 03:04:00,
2013-08-16 20:09:00,75.0,58.8,29.97,SW,221,0.0,1.0,57,0.00,,---,0.00,VWS V14.01,2013-08-17 03:09:00,
2013-08-16 20:14:00,74.7,59.0,29.97,SW,221,0.0,1.0,58,0.00,,---,0.00,VWS V14.01,2013-08-17 03:14:00,
2013-08-16 20:19:00,74.4,58.7,29.98,SW,221,0.0,1.0,58,0.00,,---,0.00,VWS V14.01,2013-08-17 03:19:00,
2013-08-16 20:24:00,74.1,58.9,29.98,SW,221,0.0,1.0,59,0.00,,---,0.00,VWS V14.01,2013-08-17 03:24:00,
2013-08-16 20:29:00,73.9,59.2,29.98,SW,221,0.0,0.0,60,0.00,,---,0.00,VWS V14.01,2013-08-17 03:29:00,
2013-08-16 20:34:00,73.7,59.0,29.98,SW,221,0.0,0.0,60,0.00,,---,0.00,VWS V14.01,2013-08-17 03:34:00,
2013-08-16 20:39:00,73.3,59.0,29.98,SW,221,0.0,0.0,61,0.00,,---,0.00,VWS V14.01,2013-08-17 03:39:00,
2013-08-16 20:44:00,73.1,59.3,29.99,SW,221,0.0,0.0,62,0.00,,---,0.00,VWS V14.01,2013-08-17 03:44:00,
2013-08-16 20:49:00,72.8,59.5,29.99,SW,221,0.0,0.0,63,0.00,,---,0.00,VWS V14.01,2013-08-17 03:49:00,
2013-08-16 20:54:00,72.6,59.7,29.99,SW,221,0.0,0.0,64,0.00,,---,0.00,VWS V14.01,2013-08-17 03:54:00,
2013-08-16 20:59:00,72.4,59.5,29.99,SW,221,0.0,0.0,64,0.00,,---,0.00,VWS V14.01,2013-08-17 03:59:00,
2013-08-16 21:01:00,72.4,59.5,29.99,SW,221,0.0,0.0,64,0.00,,---,0.00,VWS V14.01,2013-08-17 04:01:00,
2013-08-16 21:06:00,72.2,60.2,29.99,SW,221,0.0,0.0,66,0.00,,---,0.00,VWS V14.01,2013-08-17 04:06:00,
2013-08-16 21:11:00,72.0,60.0,30.00,SW,221,0.0,0.0,66,0.00,,---,0.00,VWS V14.01,2013-08-17 04:11:00,
2013-08-16 21:16:00,71.9,59.9,30.00,SW,221,0.0,0.0,66,0.00,,---,0.00,VWS V14.01,2013-08-17 04:16:00,
2013-08-16 21:21:00,71.6,59.7,30.00,SW,221,0.0,0.0,66,0.00,,---,0.00,VWS V14.01,2013-08-17 04:21:00,
2013-08-16 21:26:00,71.4,59.9,30.00,SW,221,0.0,0.0,67,0.00,,---,0.00,VWS V14.01,2013-08-17 04:26:00,
2013-08-16 21:31:00,71.2,60.1,30.00,SW,221,0.0,0.0,68,0.00,,---,0.00,VWS V14.01,2013-08-17 04:31:00,
2013-08-16 21:36:00,71.0,59.9,30.00,SW,221,0.0,0.0,68,0.00,,---,0.00,VWS V14.01,2013-08-17 04:36:00,
2013-08-16 21:41:00,70.7,59.6,30.00,SW,221,0.0,0.0,68,0.00,,---,0.00,VWS V14.01,2013-08-17 04:41:00,
2013-08-16 21:46:00,70.5,59.4,30.00,SW,221,0.0,0.0,68,0.00,,---,0.00,VWS V14.01,2013-08-17 04:46:00,
2013-08-16 21:51:00,70.3,60.1,30.00,SW,221,0.0,0.0,70,0.00,,---,0.00,VWS V14.01,2013-08-17 04:51:00,
2013-08-16 21:56:00,70.0,60.2,30.00,SW,221,0.0,0.0,71,0.00,,---,0.00,VWS V14.01,2013-08-17 04:56:00,
2013-08-16 22:01:00,69.8,60.0,30.00,SW,221,0.0,0.0,71,0.00,,---,0.00,VWS V14.01,2013-08-17 05:01:00,
2013-08-16 22:06:00,69.6,59.8,30.00,SW,221,0.0,0.0,71,0.00,,---,0.00,VWS V14.01,2013-08-17 05:06:00,
2013-08-16 22:11:00,69.4,60.0,30.00,SW,221,0.0,0.0,72,0.00,,---,0.00,VWS V14.01,2013-08-17 05:11:00,
2013-08-16 22:16:00,69.2,59.8,30.00,SW,221,0.0,0.0,72,0.00,,---,0.00,VWS V14.01,2013-08-17 05:16:00,
2013-08-16 22:21:00,69.1,60.1,30.00,SW,221,0.0,0.0,73,0.00,,---,0.00,VWS V14.01,2013-08-17 05:21:00,
2013-08-16 22:26:00,69.0,60.4,30.00,SW,221,0.0,0.0,74,0.00,,---,0.00,VWS V14.01,2013-08-17 05:26:00,
2013-08-16 22:31:00,68.9,60.3,30.00,SW,221,0.0,0.0,74,0.00,,---,0.00,VWS V14.01,2013-08-17 05:31:00,
2013-08-16 22:36:00,68.9,60.7,30.00,SW,221,0.0,0.0,75,0.00,,---,0.00,VWS V14.01,2013-08-17 05:36:00,
2013-08-16 22:41:00,68.7,60.5,30.00,SW,221,0.0,0.0,75,0.00,,---,0.00,VWS V14.01,2013-08-17 05:41:00,
2013-08-16 22:46:00,68.5,60.3,30.00,SW,221,0.0,0.0,75,0.00,,---,0.00,VWS V14.01,2013-08-17 05:46:00,
2013-08-16 22:51:00,68.3,60.5,30.00,SW,221,0.0,0.0,76,0.00,,---,0.00,VWS V14.01,2013-08-17 05:51:00,
2013-08-16 22:56:00,68.2,60.7,30.00,SW,221,0.0,0.0,77,0.00,,---,0.00,VWS V14.01,2013-08-17 05:56:00,
2013-08-16 23:01:00,68.0,60.5,30.00,SW,221,0.0,0.0,77,0.00,,---,0.00,VWS V14.01,2013-08-17 06:01:00,
2013-08-16 23:06:00,68.0,60.9,30.00,SW,221,0.0,0.0,78,0.00,,---,0.00,VWS V14.01,2013-08-17 06:06:00,
2013-08-16 23:11:00,67.8,60.3,30.00,SW,221,0.0,0.0,77,0.00,,---,0.00,VWS V14.01,2013-08-17 06:11:00,
2013-08-16 23:16:00,67.6,60.5,30.00,SW,221,0.0,0.0,78,0.00,,---,0.00,VWS V14.01,2013-08-17 06:16:00,
2013-08-16 23:21:00,67.4,60.3,30.00,SW,221,0.0,0.0,78,0.00,,---,0.00,VWS V14.01,2013-08-17 06:21:00,
2013-08-16 23:26:00,67.2,60.8,30.00,SW,221,0.0,0.0,80,0.00,,---,0.00,VWS V14.01,2013-08-17 06:26:00,
2013-08-16 23:31:00,67.1,60.4,30.00,SW,221,0.0,0.0,79,0.00,,---,0.00,VWS V14.01,2013-08-17 06:31:00,
2013-08-16 23:36:00,67.0,60.6,30.00,SW,221,0.0,0.0,80,0.00,,---,0.00,VWS V14.01,2013-08-17 06:36:00,
2013-08-16 23:41:00,66.9,60.5,30.00,SW,221,0.0,0.0,80,0.00,,---,0.00,VWS V14.01,2013-08-17 06:41:00,
2013-08-16 23:46:00,66.7,60.3,30.00,SW,221,0.0,0.0,80,0.00,,---,0.00,VWS V14.01,2013-08-17 06:46:00,
2013-08-16 23:51:00,66.4,60.0,30.00,SW,221,0.0,0.0,80,0.00,,---,0.00,VWS V14.01,2013-08-17 06:51:00,
2013-08-16 23:56:00,66.2,60.2,30.00,SW,221,0.0,0.0,81,0.00,,---,0.00,VWS V14.01,2013-08-17 06:56:00,